Location: Newark
(42.7133°N, 87.7910°W)
Time: 05:05:29
(UTC+00:00)

Transit 4A - Pass Details

Date: 24 September 2019
Orbit: 866 x 978 km, 66.8° (Epoch: 16 October)

Event Time Altitude Azimuth Distance (km) Brightness Sun altitude
Rises 02:22:37 0° 322° (NW) 3,578 12.0 -28.3°
Reaches altitude 10° 02:25:22 10° 314° (NW) 2,612 11.1 -28.7°
Maximum altitude 02:30:46 35° 250° (WSW) 1,409 9.1 -29.6°
Enters shadow 02:32:37 29° 215° (SW) 1,589 9.1 -29.9°
